Flag for U.S.A. Weather past 2 weeks in Carrollton, Texas, U.S.A.

Now
47 °F

Overcast.


Feels Like: 40 °F
Forecast: 44 / 57 °F
Wind: 16 mph from Southeast

Location: Dallas Love Field

Current Time: Jan 31, 2015 at 8:44:17 AM

Latest Report: Jan 31, 2015 at 7:53 AM


Visibility: 10 mi

Pressure: 30.21 "Hg

Humidity: 56%

Dew point: 32 °F

Location of CarrolltonLocation

Historic Weather in Carrollton — Graph

°F

Carrollton temperature yesterday

Maximum temperature yesterday: 57 °F (at 2:53 PM)
Minimum temperature yesterday: 43 °F (at 6:53 AM)
Average temperature yesterday: 51 °F

Past Weeks' High & Low Weather Summary

 TemperatureHumidityPressure
High80 °F (Jan 28, 1:53 PM)93% (Jan 22, 12:53 AM)30.50 "Hg (Jan 22, 12:53 AM)
Low34 °F (Jan 18, 7:53 AM)19% (Jan 18, 2:53 PM)29.91 "Hg (Jan 20, 4:53 AM)
Average53 °F54%30.14 "Hg
* Reported Jan 16 7:53 AM — Jan 31 7:53 AM, Carrollton, Weather by CustomWeather, © 2014

Note: Actual official high and low records may vary slightly from our data, if they occured in-between our weather recording intervals... More about our weather records

Advertising

Carrollton weather history for previous 24 hours

 ConditionsComfort  
Time TempWeatherWind HumidityBarometerVisibility
7:53 AM
Jan 31
47 °FOvercast.16 mph56%30.21 "Hg10 mi
6:53 AM48 °FMostly cloudy.16 mph54%30.21 "Hg10 mi
5:53 AM48 °FMostly cloudy.13 mph52%30.21 "Hg10 mi
4:53 AM48 °FMostly cloudy.12 mph52%30.21 "Hg10 mi
3:53 AM48 °FMostly cloudy.12 mph52%30.22 "Hg10 mi
2:53 AM49 °FOvercast.10 mph50%30.24 "Hg10 mi
1:53 AM50 °FOvercast.7 mph46%30.26 "Hg10 mi
12:53 AM50 °FMostly cloudy.9 mph44%30.27 "Hg10 mi
11:53 PM
Jan 30
51 °FOvercast.9 mph44%30.29 "Hg10 mi
10:53 PM52 °FOvercast.10 mph41%30.30 "Hg10 mi
9:53 PM53 °FMostly cloudy.10 mph39%30.32 "Hg10 mi
8:53 PM54 °FMostly cloudy.10 mph38%30.33 "Hg10 mi
7:53 PM54 °FMostly cloudy.9 mph35%30.32 "Hg10 mi
6:53 PM55 °FOvercast.6 mph35%30.33 "Hg10 mi
5:53 PM55 °FCloudy.7 mph35%30.34 "Hg10 mi
4:53 PM56 °FCloudy.10 mph34%30.34 "Hg10 mi
3:53 PM56 °FPartly sunny.9 mph34%30.35 "Hg10 mi
2:53 PM57 °FPartly sunny.No wind36%30.36 "Hg10 mi
1:53 PM56 °FPartly sunny.7 mph36%30.39 "Hg10 mi
12:53 PM55 °FPartly sunny.6 mph40%30.42 "Hg10 mi
11:53 AM52 °FPartly sunny.10 mph43%30.46 "Hg10 mi
10:53 AM50 °FPartly sunny.7 mph48%30.49 "Hg10 mi
9:53 AM47 °FBroken clouds.9 mph54%30.50 "Hg10 mi
8:53 AM45 °FPartly sunny.6 mph56%30.50 "Hg10 mi
Weather by CustomWeather, © 2014

See weather overviewHow to use our weather pages